SV2LPQ-2 Weather Reports


Display with metric or nautical units.
time (UTC)temp
F
wind
direction
speed
MPH
gust
MPH
rain 1hr
in
rain 24hr
in
rain mn
in
humidity
%
barometer
mb
20260507150618 70 295 0.0 1.0 0.00 0.00 0.00 58 1042.5
20260507145758 71 292 0.0 0.0 0.00 0.00 0.00 58 1042.5
20260507144938 71 302 0.0 0.0 0.00 0.00 0.00 59 1042.5
20260507144118 72 248 0.0 0.0 0.00 0.00 0.00 58 1042.5
20260507143258 70 225 0.0 0.0 0.00 0.00 0.00 60 1042.5
20260507142438 70 225 0.0 0.0 0.00 0.00 0.00 61 1042.5
20260507141618 69 199 0.0 0.0 0.00 0.00 0.00 63 1042.5
20260507140758 69 202 0.0 0.0 0.00 0.00 0.00 65 1042.5
20260507135938 69 180 0.0 0.0 0.00 0.00 0.00 65 1042.5
20260507135118 69 180 0.0 0.0 0.00 0.00 0.00 65 1042.5
20260507134258 69 190 0.0 0.0 0.00 0.00 0.00 67 1042.5
20260507133439 69 174 0.0 0.0 0.00 0.00 0.00 68 1042.5
20260507132618 68 208 0.0 0.0 0.00 0.00 0.00 70 1042.5
20260507131758 68 156 0.0 0.0 0.00 0.00 0.00 71 1042.5
20260507130938 68 135 0.0 0.0 0.00 0.00 0.00 70 1042.5
20260507130118 69 150 0.0 0.0 0.00 0.00 0.00 68 1042.5
20260507125258 69 349 0.0 0.0 0.00 0.00 0.00 68 1042.5
20260507124438 69 315 0.0 0.0 0.00 0.00 0.00 66 1042.5
20260507123618 69 315 0.0 0.0 0.00 0.00 0.00 65 1042.5
20260507122758 69 315 0.0 0.0 0.00 0.00 0.00 63 1042.5
20260507121938 69 315 0.0 0.0 0.00 0.00 0.00 65 1042.5
20260507121118 70 338 0.0 0.0 0.00 0.00 0.00 66 1042.5
20260507120258 70 334 0.0 0.0 0.00 0.00 0.00 65 1042.5
20260507115438 70 338 0.0 0.0 0.00 0.00 0.00 64 1042.5
20260507114618 70 338 0.0 0.0 0.00 0.00 0.00 63 1042.5
20260507113758 69 326 1.0 3.0 0.00 0.00 0.00 62 1042.5
20260507112938 69 338 0.0 0.0 0.00 0.00 0.00 65 1042.5
20260507112118 69 338 0.0 0.0 0.00 0.00 0.00 68 1042.5
20260507111258 68 338 0.0 0.0 0.00 0.00 0.00 70 1042.5
20260507110438 67 338 0.0 0.0 0.00 0.00 0.00 69 1042.5
20260507105618 67 338 0.0 0.0 0.00 0.00 0.00 69 1042.5
20260507104758 67 338 0.0 0.0 0.00 0.00 0.00 70 1042.5
20260507103938 67 338 0.0 0.0 0.00 0.00 0.00 68 1042.5
20260507103118 67 315 0.0 0.0 0.00 0.00 0.00 66 1042.5
20260507102258 67 292 0.0 0.0 0.00 0.00 0.00 68 1042.5
20260507101438 67 315 0.0 0.0 0.00 0.00 0.00 67 1042.5
20260507100618 67 298 0.0 0.0 0.00 0.00 0.00 66 1042.5
20260507095758 67 302 0.0 0.0 0.00 0.00 0.00 64 1042.5
20260507094938 68 292 0.0 0.0 0.00 0.00 0.00 65 1042.5
20260507094118 69 292 0.0 0.0 0.00 0.00 0.00 62 1042.5
20260507093258 69 292 0.0 0.0 0.00 0.00 0.00 60 1042.5
20260507092438 70 292 0.0 0.0 0.00 0.00 0.00 59 1042.5
20260507091618 70 277 0.0 0.0 0.00 0.00 0.00 61 1042.5
20260507090758 69 220 0.0 0.0 0.00 0.00 0.00 60 1042.5
20260507085938 69 292 0.0 0.0 0.00 0.00 0.00 63 1042.5
20260507085118 69 292 0.0 0.0 0.00 0.00 0.00 64 1042.5
20260507084258 68 288 0.0 0.0 0.00 0.00 0.00 65 1042.5
20260507083438 68 284 0.0 0.0 0.00 0.00 0.00 64 1042.5
20260507082618 68 248 0.0 0.0 0.00 0.00 0.00 64 1042.5
20260507081758 68 248 0.0 0.0 0.00 0.00 0.00 63 1042.5
20260507080938 69 299 0.0 0.0 0.00 0.00 0.00 61 1042.5
20260507080118 69 292 0.0 0.0 0.00 0.00 0.00 62 1042.5
20260507075258 69 315 0.0 0.0 0.00 0.00 0.00 59 1042.5
20260507074438 69 356 0.0 0.0 0.00 0.00 0.00 59 1042.5
20260507073618 69 0 0.0 0.0 0.00 0.00 0.00 59 1042.5
20260507072758 69 338 0.0 0.0 0.00 0.00 0.00 58 1042.5
20260507071938 68 158 0.0 0.0 0.00 0.00 0.00 59 1042.5
20260507071118 67 90 0.0 0.0 0.00 0.00 0.00 61 1042.5
20260507070258 66 135 0.0 0.0 0.00 0.00 0.00 62 1042.5
20260507065438 66 135 0.0 0.0 0.00 0.00 0.00 61 1042.5
20260507064618 67 121 0.0 0.0 0.00 0.00 0.00 63 1042.5
20260507063758 66 110 0.0 0.0 0.00 0.00 0.00 65 1042.5
20260507062938 65 112 0.0 0.0 0.00 0.00 0.00 66 1042.5
20260507062118 65 133 0.0 0.0 0.00 0.00 0.00 66 1042.5
20260507061258 65 135 0.0 0.0 0.00 0.00 0.00 66 1042.5
20260507060438 65 86 0.0 0.0 0.00 0.00 0.00 68 1042.5
20260507055618 64 45 0.0 0.0 0.00 0.00 0.00 70 1042.5
20260507054758 63 45 0.0 0.0 0.00 0.00 0.00 72 1042.5
20260507053938 62 112 0.0 0.0 0.00 0.00 0.00 74 1042.5
20260507053118 61 112 0.0 0.0 0.00 0.00 0.00 75 1042.5
20260507052258 59 114 0.0 0.0 0.00 0.00 0.00 79 1042.5
20260507051438 57 135 0.0 0.0 0.00 0.00 0.00 80 1042.5
20260507050618 56 135 0.0 0.0 0.00 0.00 0.00 80 1042.5
20260507045758 56 135 0.0 0.0 0.00 0.00 0.00 80 1042.5
20260507044938 56 135 0.0 0.0 0.00 0.00 0.00 81 1042.5
20260507044118 56 135 0.0 0.0 0.00 0.00 0.00 81 1042.5
20260507043258 56 135 0.0 0.0 0.00 0.00 0.00 82 1042.5
20260507042438 56 135 0.0 0.0 0.00 0.00 0.00 82 1042.5
20260507041618 55 135 0.0 0.0 0.00 0.00 0.00 81 1042.5
20260507040758 55 135 0.0 0.0 0.00 0.00 0.00 83 1042.5
20260507035938 54 135 0.0 0.0 0.00 0.00 0.00 83 1042.5
20260507035118 53 135 0.0 0.0 0.00 0.00 0.00 84 1042.5
20260507034258 53 135 0.0 0.0 0.00 0.00 0.00 84 1042.5
20260507033438 53 135 0.0 0.0 0.00 0.00 0.00 84 1042.5
20260507032618 52 135 0.0 0.0 0.00 0.00 0.00 85 1042.5
20260507031758 52 135 0.0 0.0 0.00 0.00 0.00 84 1042.5
20260507030938 52 135 0.0 0.0 0.00 0.00 0.00 84 1042.5
20260507030118 52 135 0.0 0.0 0.00 0.00 0.00 84 1042.5
20260507025258 52 135 0.0 0.0 0.00 0.00 0.00 84 1042.5
20260507024438 52 135 0.0 0.0 0.00 0.00 0.00 83 1042.5
20260507023618 53 135 0.0 0.0 0.00 0.00 0.00 84 1042.5
20260507022758 53 135 0.0 0.0 0.00 0.00 0.00 83 1042.5
20260507021938 53 135 0.0 0.0 0.00 0.00 0.00 83 1042.5
20260507021118 53 135 0.0 0.0 0.00 0.00 0.00 84 1042.5
20260507020258 53 135 0.0 0.0 0.00 0.00 0.00 83 1042.5
20260507015438 53 135 0.0 0.0 0.00 0.00 0.00 83 1042.5
20260507014618 53 135 0.0 0.0 0.00 0.00 0.00 82 1042.5
20260507013757 54 135 0.0 0.0 0.00 0.00 0.00 82 1042.5
20260507012937 54 135 0.0 0.0 0.00 0.00 0.00 82 1042.5
20260507012117 53 135 0.0 0.0 0.00 0.00 0.00 82 1042.5
20260507011257 53 135 0.0 0.0 0.00 0.00 0.00 82 1042.5
20260507010437 53 135 0.0 0.0 0.00 0.00 0.00 82 1042.5
20260507005617 54 135 0.0 0.0 0.00 0.00 0.00 82 1042.5
20260507004757 54 135 0.0 0.0 0.00 0.00 0.00 81 1042.5
20260507003937 54 135 0.0 0.0 0.00 0.00 0.00 81 1042.5
20260507003117 54 135 0.0 0.0 0.00 0.00 0.00 81 1042.5
20260507002257 54 135 0.0 0.0 0.00 0.00 0.00 81 1042.5
20260507001437 54 135 0.0 0.0 0.00 0.00 0.00 80 1042.5
20260507000617 55 135 0.0 0.0 0.00 0.00 0.00 78 1042.5
20260506235757 56 135 0.0 0.0 0.00 0.00 0.00 77 1042.5
20260506234937 56 135 0.0 0.0 0.00 0.00 0.00 77 1042.5
20260506234117 56 135 0.0 0.0 0.00 0.00 0.00 77 1042.5
20260506233257 56 135 0.0 0.0 0.00 0.00 0.00 77 1042.5
20260506232437 56 135 0.0 0.0 0.00 0.00 0.00 75 1042.5
20260506231617 56 135 0.0 0.0 0.00 0.00 0.00 75 1042.5
20260506230757 57 135 0.0 0.0 0.00 0.00 0.00 74 1042.5
20260506225937 57 135 0.0 0.0 0.00 0.00 0.00 72 1042.5
20260506225117 58 135 0.0 0.0 0.00 0.00 0.00 70 1042.5
20260506224257 59 135 0.0 0.0 0.00 0.00 0.00 70 1042.5
20260506223437 59 135 0.0 0.0 0.00 0.00 0.00 69 1042.5
20260506222617 59 158 0.0 0.0 0.00 0.00 0.00 70 1042.5
20260506221757 58 109 0.0 0.0 0.00 0.00 0.00 71 1042.5
20260506220937 58 90 0.0 0.0 0.00 0.00 0.00 71 1042.5
20260506220117 59 90 0.0 0.0 0.00 0.00 0.00 71 1042.5
20260506215257 59 90 0.0 0.0 0.00 0.00 0.00 71 1042.5
20260506214437 59 90 0.0 0.0 0.00 0.00 0.00 71 1042.5
20260506213617 59 90 0.0 0.0 0.00 0.00 0.00 70 1042.5
20260506212757 60 90 0.0 0.0 0.00 0.00 0.00 69 1042.5
20260506211937 60 90 0.0 0.0 0.00 0.00 0.00 69 1042.5
20260506211117 60 90 0.0 0.0 0.00 0.00 0.00 68 1042.5
20260506210257 61 90 0.0 0.0 0.00 0.00 0.00 66 1042.5
20260506205437 62 90 0.0 0.0 0.00 0.00 0.00 65 1042.5
20260506204617 62 135 0.0 0.0 0.00 0.00 0.00 63 1042.5
20260506203757 62 135 0.0 0.0 0.00 0.00 0.00 63 1042.5
20260506202937 63 158 0.0 0.0 0.00 0.00 0.00 63 1042.5
20260506202117 63 171 0.0 0.0 0.00 0.00 0.00 62 1042.5
20260506201257 64 180 0.0 0.0 0.00 0.00 0.00 62 1042.5
20260506200437 64 173 0.0 1.0 0.00 0.00 0.00 62 1042.5
20260506195617 64 159 0.0 3.0 0.00 0.00 0.00 63 1042.5
20260506194757 64 202 0.0 0.0 0.00 0.00 0.00 62 1042.5
20260506193937 64 180 0.0 0.0 0.00 0.00 0.00 61 1042.5
20260506193117 65 178 0.0 0.0 0.00 0.00 0.00 61 1042.5
20260506192257 65 158 0.0 0.0 0.00 0.00 0.00 60 1042.5
20260506191436 65 180 0.0 0.0 0.00 0.00 0.00 60 1042.5
20260506190616 66 158 0.0 0.0 0.00 0.00 0.00 59 1042.5
20260506185756 66 174 0.0 0.0 0.00 0.00 0.00 58 1042.5
20260506184936 67 178 0.0 1.0 0.00 0.00 0.00 57 1042.5
20260506184116 67 141 0.0 0.0 0.00 0.00 0.00 56 1042.5
20260506183256 68 138 0.0 2.0 0.00 0.00 0.00 55 1042.5
20260506182436 68 166 0.0 0.0 0.00 0.00 0.00 54 1042.5
20260506181616 69 148 0.0 0.0 0.00 0.00 0.00 54 1042.5
20260506180756 70 112 0.0 0.0 0.00 0.00 0.00 53 1042.5
20260506175936 71 131 0.0 0.0 0.00 0.00 0.00 51 1042.5
20260506175116 71 158 0.0 0.0 0.00 0.00 0.00 50 1042.5
20260506174256 72 180 0.0 0.0 0.00 0.00 0.00 49 1042.5
20260506173436 73 160 0.0 1.0 0.00 0.00 0.00 48 1042.5
20260506172616 73 166 1.0 1.0 0.00 0.00 0.00 48 1042.5
20260506171756 74 151 2.0 7.0 0.00 0.00 0.00 47 1042.5
20260506170936 74 169 0.0 0.0 0.00 0.00 0.00 46 1042.5
20260506170116 75 177 0.0 3.0 0.00 0.00 0.00 45 1042.5
20260506165256 76 162 1.0 7.0 0.00 0.00 0.00 44 1042.5
20260506164436 77 148 0.0 2.0 0.00 0.00 0.00 43 1042.5
20260506163616 77 169 0.0 5.0 0.00 0.00 0.00 42 1042.5
20260506162756 78 172 1.0 0.0 0.00 0.00 0.00 41 1042.5
20260506161936 79 148 0.0 2.0 0.00 0.00 0.00 41 1042.5
20260506161116 79 163 3.0 6.0 0.00 0.00 0.00 40 1042.5
20260506160256 80 146 5.0 8.0 0.00 0.00 0.00 40 1042.5
20260506155436 81 163 3.0 10.0 0.00 0.00 0.00 40 1042.5
20260506154616 81 158 0.0 0.0 0.00 0.00 0.00 39 1042.5
20260506153756 82 222 1.0 5.0 0.00 0.00 0.00 39 1042.5
20260506152936 82 300 0.0 0.0 0.00 0.00 0.00 39 1042.5
20260506152116 82 341 1.0 8.0 0.00 0.00 0.00 39 1042.5